{"data":{"norad_id":67744,"intl_designator":"2026-026Z","name":"STARLINK-36692","alt_names":[],"object_type":"PAYLOAD","status":"ACTIVE","operator":null,"country":"US","launch_date":"2026-02-11","launch_site_code":"AFWTR","launch_vehicle":null,"mission":null,"orbit_class":"UNKNOWN","rcs_meters":null,"size_class":null,"mass_kg":null,"dimensions":null,"purposes":["comms"],"wikipedia_slug":null,"has_3d_model":false,"image_url":null,"decayed_at":null,"tle_current":{"epoch":"2026-05-25T02:58:27.238368Z","epoch_age_seconds":61010,"freshness":"FRESH","line1":"1 67744U 26026Z   26145.12392637  .00021493  00000+0  66599-3 0  9991","line2":"2 67744  97.2849 198.7096 0000926 100.0356 260.0992 15.33454357 15847","mean_motion":15.33454357,"eccentricity":9.26e-5,"inclination_deg":97.2849,"raan_deg":198.7096,"arg_perigee_deg":100.0356,"mean_anomaly_deg":260.0992,"bstar":0.00066599,"rev_number":1584,"period_min":93.905631649655,"perigee_km":464.88161256471,"apogee_km":466.14905697711,"semimajor_km":6843.6523347709,"source":"CELESTRAK","updated_at":"2026-05-25T13:38:21.691447Z"}}}